Regional Weather Roundup
Issued by NWS Cleveland, OH

Home | Current Version | Previous Version | Text Only | Print | Product List | Glossary Off
Versions: 1 2 3 4 5 6 7 8 9 10 11 12 13 14 15 16 17 18 19 20 21 22 23 24 25 26 27 28 29 30 31 32 33 34 35 36 37 38 39 40 41 42 43 44 45 46 47 48 49 50

000
ASUS41 KCLE 230710
RWRCLE
OHIO REGIONAL WEATHER ROUNDUP
NATIONAL WEATHER SERVICE CLEVELAND, OH
200 AM EST MON JAN 23 2017

NOTE: "FAIR" INDICATES FEW OR NO CLOUDS BELOW 12,000 FEET WITH NO
SIGNIFICANT WEATHER AND/OR OBSTRUCTIONS TO VISIBILITY.

OHZ001>008-015>018-024>027-034-035-043-044-230800-
   NORTHWEST OHIO

CITY           SKY/WX    TMP DP  RH WIND       PRES   REMARKS
DEFIANCE       FOG       41  41 100 NE8       29.57F VSB 3/4
FINDLAY        CLOUDY    40  37  89 NE18      29.53S FOG
TOLEDO EXPRESS CLOUDY    41  41 100 NE14      29.58F FOG
TOLEDO EXEC    FOG       40  40 100 NE9       29.59F VSB 1
LIMA           FOG       40  40 100 N17       29.51S VSB 3/4
$$

OHZ009>014-019>023-028>033-038-089-230800-
   NORTHEAST OHIO

CITY           SKY/WX    TMP DP  RH WIND       PRES   REMARKS
CLE-HOPKINS    CLOUDY    41  37  86 NE8       29.57S
CLE-LAKEFRONT  CLOUDY    38  37  97 NE15      29.55S FOG
CUY CO. ARPT   NOT AVBL
LORAIN-ELYRIA  CLOUDY    38  35  89 NE10      29.55S FOG
ASHTABULA      FOG       39  39 100 NE6       29.60S VSB 3/4
AKRON-CANTON   CLOUDY    52  46  80 E13       29.51F
WOOSTER        CLOUDY    51  46  83 NE9       29.51F
MANSFIELD      CLOUDY    49  47  93 N10       29.50S
YOUNGSTOWN     LGT RAIN  51  45  79 E8        29.56F
$$

OHZ042-051>053-060>062-070>072-077>081-230800-
  SOUTHWEST OHIO

CITY           SKY/WX    TMP DP  RH WIND       PRES   REMARKS
CINC-COVINGTON CLOUDY    54  48  80 N18       29.39F
CINC-LUNKEN    CLOUDY    56  49  77 N12       29.41S
HAMILTON       CLOUDY    54  49  83 N9        29.44R
DAYTON         CLOUDY    48  46  93 N14       29.46S
WRIGHT-PAT AFB CLOUDY    51  50  97 N9        29.44S
DAYTON GENERAL CLOUDY    51  47  86 N14       29.42S
WILMINGTON     CLOUDY    51  48  89 N12       29.41R
$$

OHZ036-037-039>041-045>050-054>059-063>069-073>076-082>088-230800-
  CENTRAL AND SOUTHEAST OHIO

CITY           SKY/WX    TMP DP  RH WIND       PRES   REMARKS
COLUMBUS       CLOUDY    56  48  74 NE14G22   29.43S
OSU AIRPORT    CLOUDY    54  49  83 NE12      29.44S
BOLTON FIELD   CLOUDY    54  49  83 NE12G20   29.44S
RICKENBACK AFB   N/A     55  48  80 NE10      29.42S
NEWARK         CLOUDY    56  47  71 NE7       29.43F
MARION         CLOUDY    43  41  93 N13       29.50R FOG
LANCASTER      CLOUDY    56  48  74 NE10      29.42F
ZANESVILLE     CLOUDY    55  47  74 E12G22    29.43F
NEW PHILLY     NOT AVBL
$$



USA.gov is the U.S. government's official web portal to all federal, state and local government web resources and services.